sat.trackr.live / text

‹ back to catalog

UWE-4

NORAD 43880 · 2018-111E

PAYLOAD ACTIVE UNKNOWN

§ Identity

Operator
Country
GER
Launch date
2018-12-27
Launch site
VOSTO
Launch vehicle
Mass (kg)
RCS (m²)

Purposes: comms

External: N2YO · Heavens-Above · Gunter

§ Orbital elements

Epoch: 2026-09-17T18:58:16.773024Z

Period
92.79 min
Inclination
97.5815°
Eccentricity
0.0006557
Mean motion
15.51924947 rev/d
Perigee alt
406.7 km
Apogee alt
415.6 km
Semi-major
6,789.2 km
B*
5.4348e-4
RAAN
193.8360°
Arg perigee
15.6860°
Mean anomaly
344.4594°
Rev number
42,511

§ Raw data

UWE-41 43880U 18111E   26260.79047191  .00032620  00000+0  54348-3 0  99982 43880  97.5815 193.8360 0006557  15.6860 344.4594 15.51924947425112

JSON: /api/v1/satellites/43880 · /tle

For live sub-satellite position, see the globe view (requires WebGL).

§ Visibility from observer

Set your observer location to see the next 7 days of passes ≥ 10°. The values pass through the URL so the page stays shareable.

No JS? Fill the form by hand. The geolocation button needs JavaScript.

§ Radio — SatNOGS DB

ModeDescriptionDownlinkUplink
FSK Mode U - FSK 9600 AX.25 435.600 MHz
FSK FSK9k6 AX.25 TLM - 16K0F2D (inactive) 437.385 MHz

2 transmitters · refreshed weekly from db.satnogs.org